Flag for U.S.A. Weather past 2 weeks in Salina, Kansas, U.S.A.

Now
65 °F

Clear.


Feels Like: 65 °F
Forecast: 58 / 83 °F
Wind: 7 mph from South

Location: Salina Municipal Airport

Current Time: Oct 25, 2014 at 11:11:45 PM

Latest Report: Oct 25, 2014 at 9:53 PM


Visibility: 10 mi

Pressure: 29.91 "Hg

Humidity: 76%

Dew point: 57 °F

Location of SalinaLocation

Historic Weather in Salina — Graph

°F

Salina temperature yesterday

Maximum temperature yesterday: 84 °F (at 3:53 PM)
Minimum temperature yesterday: 58 °F (at 7:53 AM)
Average temperature yesterday: 67 °F

Past Weeks' High & Low Weather Summary

 TemperatureHumidityPressure
High90 °F (Oct 25, 2:53 PM)96% (Oct 25, 4:02 AM)33.00 "Hg (Oct 25, 4:02 AM)
Low38 °F (Oct 15, 6:53 AM)31% (Oct 14, 2:53 PM)29.65 "Hg (Oct 12, 2:53 PM)
Average59 °F69%30.00 "Hg
* Reported Oct 10 9:53 PM — Oct 25 9:53 PM, Salina, Weather by CustomWeather, © 2014

Note: Actual official high and low records may vary slightly from our data, if they occured in-between our weather recording intervals... More about our weather records

Advertising

Salina weather history for previous 24 hours

 ConditionsComfort  
Time TempWeatherWind HumidityBarometerVisibility
9:53 PM
Oct 25
65 °FClear.7 mph76%29.91 "Hg10 mi
8:53 PM68 °FClear.7 mph68%29.92 "Hg10 mi
7:53 PM70 °FClear.6 mph64%29.93 "Hg10 mi
6:53 PM74 °FSunny.9 mph56%29.93 "Hg10 mi
5:53 PM83 °FSunny.6 mph41%29.93 "Hg10 mi
4:53 PM88 °FSunny.9 mph35%29.94 "Hg10 mi
3:53 PM90 °FSunny.9 mph32%29.95 "Hg10 mi
2:53 PM90 °FSunny.9 mph32%29.96 "Hg10 mi
1:53 PM85 °FSunny.3 mph48%29.99 "Hg10 mi
12:53 PM81 °FSunny.3 mph54%30.02 "Hg10 mi
11:53 AM74 °FSunny.No wind69%30.04 "Hg10 mi
10:53 AM68 °FSunny.5 mph78%30.05 "Hg8 mi
9:53 AM63 °FFog.No wind87%30.05 "Hg5 mi
8:53 AM56 °FFog.No wind93%30.05 "Hg4 mi
7:53 AM53 °FFog.3 mph96%30.03 "Hg0 mi
7:03 AM53 °FFog.5 mph96%30.04 "Hg2 mi
6:53 AM53 °FFog.5 mph93%30.02 "Hg3 mi
5:53 AM56 °FFog.3 mph93%30.00 "Hg1 mi
4:53 AM55 °FFog.8 mph96%30.00 "Hg2 mi
4:02 AM57 °FFog.5 mph96%30.03 "Hg2 mi
3:53 AM58 °FFog.5 mph93%30.00 "Hg3 mi
3:03 AM60 °FFog.No wind90%30.03 "Hg1 mi
2:53 AM60 °FFog.No wind90%30.01 "Hg5 mi
1:53 AM62 °FClear.3 mph90%30.00 "Hg8 mi
12:53 AM63 °FClear.No wind87%29.99 "Hg9 mi
11:53 PM
Oct 24
62 °FClear.5 mph86%29.98 "Hg9 mi
Weather by CustomWeather, © 2014

See weather overviewHow to use our weather pages